Location: Larrial
(48.2758°N, 4.5331°W)
Time: 13:07:17
(UTC+00:00)

Cosmos 1812 Rocket - Pass Details

Date: 09 April 2020
Orbit: 607 x 631 km, 82.5° (Epoch: 27 May)

Event Time Altitude Azimuth Distance (km) Brightness Sun altitude
Exits shadow 21:02:23 30° 177° (S) 1,096 4.5 -19.0°
Maximum altitude 21:04:28 76° 98° (E) 633 3.4 -19.3°
Drops below altitude 10° 21:08:49 10° 13° (NNE) 1,969 6.5 -19.9°
Sets 21:11:02 0° 11° (NNE) 2,878 7.4 -20.2°
